Time,TemperatureF,DewpointF,PressureIn,WindDirection,WindDirectionDegrees,WindSpeedMPH,WindSpeedGustMPH,Humidity,HourlyPrecipIn,Conditions,Clouds,dailyrainin,SoftwareType,DateUTC
2013-03-17 00:02:00,58.0,8.0,29.87,SW,228,9.0,10.0,13,-99.99,,,-99.99,,2013-03-17 06:02:00,
2013-03-17 00:12:00,58.0,7.0,29.87,WSW,243,9.0,10.0,13,-99.99,,,-99.99,,2013-03-17 06:12:00,
2013-03-17 00:22:00,55.0,7.0,29.87,West,261,7.0,8.0,14,-99.99,,,-99.99,,2013-03-17 06:22:00,
2013-03-17 00:32:00,54.0,6.0,29.87,West,261,7.0,9.0,14,-99.99,,,-99.99,,2013-03-17 06:32:00,
2013-03-17 00:42:00,53.0,6.0,29.87,WNW,285,12.0,14.0,15,-99.99,,,-99.99,,2013-03-17 06:42:00,
2013-03-17 00:52:00,60.0,9.0,29.87,West,274,12.0,13.0,13,-99.99,,,-99.99,,2013-03-17 06:52:00,
2013-03-17 01:02:00,60.0,9.0,29.88,WSW,254,7.0,9.0,13,-99.99,,,-99.99,,2013-03-17 07:02:00,
2013-03-17 01:12:00,58.0,9.0,29.87,WSW,247,10.0,13.0,14,-99.99,,,-99.99,,2013-03-17 07:12:00,
2013-03-17 01:22:00,60.0,9.0,29.87,West,260,8.0,13.0,13,-99.99,,,-99.99,,2013-03-17 07:22:00,
2013-03-17 01:32:00,62.0,9.0,29.87,West,266,12.0,15.0,12,-99.99,,,-99.99,,2013-03-17 07:32:00,
2013-03-17 01:42:00,65.0,9.0,29.87,WSW,256,10.0,14.0,11,-99.99,,,-99.99,,2013-03-17 07:42:00,
2013-03-17 01:52:00,65.0,9.0,29.87,WSW,256,9.0,14.0,11,-99.99,,,-99.99,,2013-03-17 07:52:00,
2013-03-17 02:02:00,64.0,9.0,29.88,NW,312,10.0,13.0,11,-99.99,,,-99.99,,2013-03-17 08:02:00,
2013-03-17 02:13:00,61.0,8.0,29.88,WNW,296,9.0,9.0,12,-99.99,,,-99.99,,2013-03-17 08:13:00,
2013-03-17 02:22:00,61.0,8.0,29.88,WNW,294,10.0,14.0,12,-99.99,,,-99.99,,2013-03-17 08:22:00,
2013-03-17 02:32:00,61.0,6.0,29.88,West,279,9.0,12.0,11,-99.99,,,-99.99,,2013-03-17 08:32:00,
2013-03-17 02:42:00,60.0,8.0,29.88,WNW,284,9.0,12.0,12,-99.99,,,-99.99,,2013-03-17 08:42:00,
2013-03-17 02:52:00,59.0,7.0,29.88,West,273,9.0,10.0,12,-99.99,,,-99.99,,2013-03-17 08:52:00,
2013-03-17 03:02:00,58.0,7.0,29.88,West,273,9.0,10.0,13,-99.99,,,-99.99,,2013-03-17 09:02:00,
2013-03-17 03:12:00,57.0,7.0,29.88,West,272,9.0,10.0,13,-99.99,,,-99.99,,2013-03-17 09:12:00,
2013-03-17 03:22:00,57.0,7.0,29.89,West,269,10.0,12.0,13,-99.99,,,-99.99,,2013-03-17 09:22:00,
2013-03-17 03:32:00,57.0,7.0,29.89,West,264,8.0,10.0,13,-99.99,,,-99.99,,2013-03-17 09:32:00,
2013-03-17 03:43:00,57.0,6.0,29.89,West,260,8.0,10.0,13,-99.99,,,-99.99,,2013-03-17 09:43:00,
2013-03-17 03:53:00,54.0,6.0,29.89,West,266,8.0,8.0,14,-99.99,,,-99.99,,2013-03-17 09:53:00,
2013-03-17 04:03:00,55.0,7.0,29.89,WSW,257,7.0,8.0,14,-99.99,,,-99.99,,2013-03-17 10:03:00,
2013-03-17 04:13:00,54.0,7.0,29.89,WSW,255,7.0,9.0,15,-99.99,,,-99.99,,2013-03-17 10:13:00,
2013-03-17 04:23:00,53.0,7.0,29.89,West,268,9.0,10.0,15,-99.99,,,-99.99,,2013-03-17 10:23:00,
2013-03-17 04:33:00,53.0,7.0,29.89,West,274,10.0,12.0,15,-99.99,,,-99.99,,2013-03-17 10:33:00,
2013-03-17 04:42:00,53.0,7.0,29.89,WNW,283,9.0,10.0,15,-99.99,,,-99.99,,2013-03-17 10:42:00,
2013-03-17 04:52:00,51.0,7.0,29.89,West,278,8.0,9.0,16,-99.99,,,-99.99,,2013-03-17 10:52:00,
2013-03-17 05:02:00,51.0,6.0,29.89,WNW,286,8.0,10.0,16,-99.99,,,-99.99,,2013-03-17 11:02:00,
2013-03-17 05:12:00,49.0,7.0,29.89,West,266,8.0,9.0,18,-99.99,,,-99.99,,2013-03-17 11:12:00,
2013-03-17 05:22:00,48.0,7.0,29.89,WSW,258,6.0,7.0,18,-99.99,,,-99.99,,2013-03-17 11:22:00,
2013-03-17 05:32:00,48.0,6.0,29.89,SW,236,9.0,10.0,18,-99.99,,,-99.99,,2013-03-17 11:32:00,
2013-03-17 05:42:00,48.0,7.0,29.89,West,269,8.0,9.0,18,-99.99,,,-99.99,,2013-03-17 11:42:00,
2013-03-17 05:52:00,48.0,6.0,29.89,WNW,296,8.0,9.0,18,-99.99,,,-99.99,,2013-03-17 11:52:00,
2013-03-17 06:02:00,47.0,7.0,29.89,WNW,291,9.0,10.0,19,-99.99,,,-99.99,,2013-03-17 12:02:00,
2013-03-17 06:12:00,46.0,7.0,29.90,WNW,296,9.0,10.0,20,-99.99,,,-99.99,,2013-03-17 12:12:00,
2013-03-17 06:22:00,48.0,7.0,29.90,WNW,291,10.0,13.0,18,-99.99,,,-99.99,,2013-03-17 12:22:00,
2013-03-17 06:32:00,50.0,7.0,29.90,WNW,294,12.0,14.0,17,-99.99,,,-99.99,,2013-03-17 12:32:00,
2013-03-17 06:43:00,52.0,7.0,29.90,WNW,299,12.0,13.0,16,-99.99,,,-99.99,,2013-03-17 12:43:00,
2013-03-17 06:52:00,52.0,7.0,29.90,WNW,299,10.0,13.0,16,-99.99,,,-99.99,,2013-03-17 12:52:00,
2013-03-17 07:02:00,51.0,8.0,29.91,WSW,250,7.0,8.0,17,-99.99,,,-99.99,,2013-03-17 13:02:00,
2013-03-17 07:12:00,50.0,8.0,29.91,SW,218,3.0,5.0,18,-99.99,,,-99.99,,2013-03-17 13:12:00,
2013-03-17 07:22:00,49.0,8.0,29.92,East,100,3.0,5.0,19,-99.99,,,-99.99,,2013-03-17 13:22:00,
2013-03-17 07:32:00,51.0,8.0,29.91,WNW,301,5.0,7.0,17,-99.99,,,-99.99,,2013-03-17 13:32:00,
2013-03-17 07:42:00,50.0,8.0,29.91,WNW,303,3.0,5.0,18,-99.99,,,-99.99,,2013-03-17 13:42:00,
2013-03-17 07:52:00,50.0,8.0,29.91,NW,314,3.0,5.0,18,-99.99,,,-99.99,,2013-03-17 13:52:00,
2013-03-17 08:02:00,50.0,8.0,29.92,NW,313,2.0,5.0,18,-99.99,,,-99.99,,2013-03-17 14:02:00,
2013-03-17 08:12:00,50.0,7.0,29.92,North,0,0.0,2.0,17,-99.99,,,-99.99,,2013-03-17 14:12:00,
2013-03-17 08:22:00,51.0,7.0,29.92,WSW,243,5.0,6.0,16,-99.99,,,-99.99,,2013-03-17 14:22:00,
2013-03-17 08:32:00,52.0,7.0,29.92,SW,235,6.0,8.0,16,-99.99,,,-99.99,,2013-03-17 14:32:00,
2013-03-17 08:42:00,54.0,8.0,29.92,SW,233,9.0,12.0,15,-99.99,,,-99.99,,2013-03-17 14:42:00,
2013-03-17 08:52:00,57.0,9.0,29.92,WSW,241,9.0,14.0,14,-99.99,,,-99.99,,2013-03-17 14:52:00,
2013-03-17 09:02:00,59.0,10.0,29.92,WSW,246,8.0,13.0,14,-99.99,,,-99.99,,2013-03-17 15:02:00,
2013-03-17 09:12:00,60.0,11.0,29.93,WSW,248,8.0,15.0,14,-99.99,,,-99.99,,2013-03-17 15:12:00,
2013-03-17 09:23:00,62.0,12.0,29.93,WSW,246,9.0,17.0,14,-99.99,,,-99.99,,2013-03-17 15:23:00,
2013-03-17 09:33:00,63.0,13.0,29.93,WSW,243,13.0,20.0,14,-99.99,,,-99.99,,2013-03-17 15:33:00,
2013-03-17 09:42:00,64.0,12.0,29.93,WSW,247,10.0,18.0,13,-99.99,,,-99.99,,2013-03-17 15:42:00,
2013-03-17 09:52:00,65.0,13.0,29.93,WSW,249,15.0,23.0,13,-99.99,,,-99.99,,2013-03-17 15:52:00,
2013-03-17 10:03:00,65.0,12.0,29.94,WSW,251,14.0,22.0,12,-99.99,,,-99.99,,2013-03-17 16:03:00,
2013-03-17 10:12:00,66.0,12.0,29.94,WSW,244,15.0,22.0,12,-99.99,,,-99.99,,2013-03-17 16:12:00,
2013-03-17 10:23:00,67.0,11.0,29.94,WSW,244,17.0,23.0,11,-99.99,,,-99.99,,2013-03-17 16:23:00,
2013-03-17 10:33:00,67.0,11.0,29.94,WSW,250,14.0,24.0,11,-99.99,,,-99.99,,2013-03-17 16:33:00,
2013-03-17 10:42:00,68.0,12.0,29.94,WSW,248,13.0,22.0,11,-99.99,,,-99.99,,2013-03-17 16:42:00,
2013-03-17 10:52:00,69.0,12.0,29.94,WSW,241,15.0,22.0,11,-99.99,,,-99.99,,2013-03-17 16:52:00,
2013-03-17 11:02:00,70.0,13.0,29.94,WSW,250,16.0,23.0,11,-99.99,,,-99.99,,2013-03-17 17:02:00,
2013-03-17 11:12:00,70.0,13.0,29.93,West,261,16.0,24.0,11,-99.99,,,-99.99,,2013-03-17 17:12:00,
2013-03-17 11:22:00,70.0,13.0,29.93,WSW,250,16.0,23.0,11,-99.99,,,-99.99,,2013-03-17 17:22:00,
2013-03-17 11:33:00,71.0,14.0,29.93,WSW,251,14.0,23.0,11,-99.99,,,-99.99,,2013-03-17 17:33:00,
2013-03-17 11:42:00,71.0,15.0,29.93,West,270,15.0,21.0,12,-99.99,,,-99.99,,2013-03-17 17:42:00,
2013-03-17 11:52:00,71.0,14.0,29.92,WSW,240,16.0,23.0,11,-99.99,,,-99.99,,2013-03-17 17:52:00,
2013-03-17 12:02:00,71.0,16.0,29.92,WSW,243,20.0,29.0,12,-99.99,,,-99.99,,2013-03-17 18:02:00,
2013-03-17 12:12:00,72.0,17.0,29.92,WSW,258,14.0,22.0,12,-99.99,,,-99.99,,2013-03-17 18:12:00,
2013-03-17 12:22:00,72.0,17.0,29.92,WSW,257,18.0,27.0,12,-99.99,,,-99.99,,2013-03-17 18:22:00,
2013-03-17 12:32:00,72.0,16.0,29.91,West,264,12.0,21.0,12,-99.99,,,-99.99,,2013-03-17 18:32:00,
2013-03-17 12:42:00,73.0,15.0,29.91,West,259,17.0,27.0,11,-99.99,,,-99.99,,2013-03-17 18:42:00,
2013-03-17 12:52:00,73.0,16.0,29.90,West,265,22.0,32.0,11,-99.99,,,-99.99,,2013-03-17 18:52:00,
2013-03-17 13:02:00,73.0,16.0,29.90,WNW,288,15.0,21.0,11,-99.99,,,-99.99,,2013-03-17 19:02:00,
2013-03-17 13:12:00,74.0,16.0,29.89,WSW,246,15.0,23.0,11,-99.99,,,-99.99,,2013-03-17 19:12:00,
2013-03-17 13:22:00,75.0,17.0,29.88,West,275,18.0,23.0,11,-99.99,,,-99.99,,2013-03-17 19:22:00,
2013-03-17 13:33:00,75.0,17.0,29.88,WNW,291,22.0,32.0,11,-99.99,,,-99.99,,2013-03-17 19:33:00,
2013-03-17 13:42:00,75.0,15.0,29.87,WSW,255,18.0,28.0,10,-99.99,,,-99.99,,2013-03-17 19:42:00,
2013-03-17 13:53:00,75.0,15.0,29.87,West,268,21.0,32.0,10,-99.99,,,-99.99,,2013-03-17 19:53:00,
2013-03-17 14:02:00,76.0,15.0,29.86,WNW,289,17.0,30.0,10,-99.99,,,-99.99,,2013-03-17 20:02:00,
2013-03-17 14:12:00,76.0,15.0,29.85,West,270,20.0,25.0,10,-99.99,,,-99.99,,2013-03-17 20:12:00,
2013-03-17 14:22:00,76.0,16.0,29.85,WSW,253,18.0,32.0,10,-99.99,,,-99.99,,2013-03-17 20:22:00,
2013-03-17 14:32:00,76.0,15.0,29.84,West,277,13.0,17.0,10,-99.99,,,-99.99,,2013-03-17 20:32:00,
2013-03-17 14:42:00,77.0,17.0,29.83,WNW,283,25.0,36.0,10,-99.99,,,-99.99,,2013-03-17 20:42:00,
2013-03-17 14:52:00,77.0,16.0,29.83,West,276,23.0,36.0,10,-99.99,,,-99.99,,2013-03-17 20:52:00,
2013-03-17 15:03:00,77.0,17.0,29.82,WNW,293,24.0,32.0,10,-99.99,,,-99.99,,2013-03-17 21:03:00,
2013-03-17 15:12:00,77.0,17.0,29.82,WNW,293,27.0,36.0,10,-99.99,,,-99.99,,2013-03-17 21:12:00,
2013-03-17 15:22:00,78.0,15.0,29.81,WNW,299,24.0,30.0,9,-99.99,,,-99.99,,2013-03-17 21:22:00,
2013-03-17 15:33:00,78.0,15.0,29.81,West,274,22.0,33.0,9,-99.99,,,-99.99,,2013-03-17 21:33:00,
2013-03-17 15:43:00,78.0,12.0,29.81,WNW,292,31.0,44.0,8,-99.99,,,-99.99,,2013-03-17 21:43:00,
2013-03-17 15:52:00,78.0,14.0,29.81,WNW,297,28.0,39.0,9,-99.99,,,-99.99,,2013-03-17 21:52:00,
2013-03-17 16:03:00,78.0,15.0,29.81,WNW,283,28.0,37.0,9,-99.99,,,-99.99,,2013-03-17 22:03:00,
2013-03-17 16:12:00,78.0,15.0,29.80,WNW,285,24.0,35.0,9,-99.99,,,-99.99,,2013-03-17 22:12:00,
2013-03-17 16:23:00,78.0,15.0,29.80,WNW,294,31.0,44.0,9,-99.99,,,-99.99,,2013-03-17 22:23:00,
2013-03-17 16:33:00,78.0,15.0,29.80,WNW,295,27.0,40.0,9,-99.99,,,-99.99,,2013-03-17 22:33:00,
2013-03-17 16:42:00,78.0,15.0,29.80,WNW,290,25.0,36.0,9,-99.99,,,-99.99,,2013-03-17 22:42:00,
2013-03-17 16:52:00,78.0,15.0,29.80,WNW,287,28.0,38.0,9,-99.99,,,-99.99,,2013-03-17 22:52:00,
2013-03-17 17:02:00,78.0,14.0,29.79,WNW,284,22.0,30.0,9,-99.99,,,-99.99,,2013-03-17 23:02:00,
2013-03-17 17:12:00,78.0,15.0,29.80,WNW,296,30.0,39.0,9,-99.99,,,-99.99,,2013-03-17 23:12:00,
2013-03-17 17:22:00,78.0,15.0,29.80,WNW,292,24.0,33.0,9,-99.99,,,-99.99,,2013-03-17 23:22:00,
2013-03-17 17:33:00,77.0,14.0,29.80,WNW,293,23.0,35.0,9,-99.99,,,-99.99,,2013-03-17 23:33:00,
2013-03-17 17:42:00,77.0,14.0,29.80,WNW,300,27.0,38.0,9,-99.99,,,-99.99,,2013-03-17 23:42:00,
2013-03-17 17:52:00,76.0,13.0,29.80,NW,304,30.0,38.0,9,-99.99,,,-99.99,,2013-03-17 23:52:00,
2013-03-17 18:03:00,76.0,13.0,29.80,WNW,286,27.0,39.0,9,-99.99,,,-99.99,,2013-03-18 00:03:00,
2013-03-17 18:12:00,76.0,13.0,29.80,West,281,24.0,35.0,9,-99.99,,,-99.99,,2013-03-18 00:12:00,
2013-03-17 18:22:00,76.0,13.0,29.80,West,275,27.0,37.0,9,-99.99,,,-99.99,,2013-03-18 00:22:00,
2013-03-17 18:33:00,76.0,13.0,29.81,West,279,28.0,41.0,9,-99.99,,,-99.99,,2013-03-18 00:33:00,
2013-03-17 18:42:00,75.0,13.0,29.81,WNW,284,22.0,29.0,9,-99.99,,,-99.99,,2013-03-18 00:42:00,
2013-03-17 18:52:00,75.0,12.0,29.82,WNW,299,22.0,32.0,9,-99.99,,,-99.99,,2013-03-18 00:52:00,
2013-03-17 19:02:00,74.0,14.0,29.82,NW,304,24.0,33.0,10,-99.99,,,-99.99,,2013-03-18 01:02:00,
2013-03-17 19:12:00,74.0,14.0,29.82,WNW,291,21.0,30.0,10,-99.99,,,-99.99,,2013-03-18 01:12:00,
2013-03-17 19:22:00,73.0,11.0,29.82,WNW,299,22.0,32.0,9,-99.99,,,-99.99,,2013-03-18 01:22:00,
2013-03-17 19:32:00,73.0,11.0,29.82,WNW,302,29.0,40.0,9,-99.99,,,-99.99,,2013-03-18 01:32:00,
2013-03-17 19:42:00,72.0,13.0,29.83,WNW,300,25.0,32.0,10,-99.99,,,-99.99,,2013-03-18 01:42:00,
2013-03-17 19:52:00,72.0,12.0,29.83,WNW,297,24.0,32.0,10,-99.99,,,-99.99,,2013-03-18 01:52:00,
2013-03-17 20:02:00,72.0,12.0,29.84,WNW,294,21.0,31.0,10,-99.99,,,-99.99,,2013-03-18 02:02:00,
2013-03-17 20:12:00,71.0,12.0,29.84,WNW,294,22.0,29.0,10,-99.99,,,-99.99,,2013-03-18 02:12:00,
2013-03-17 20:22:00,71.0,12.0,29.84,WNW,301,23.0,30.0,10,-99.99,,,-99.99,,2013-03-18 02:22:00,
2013-03-17 20:32:00,71.0,11.0,29.85,WNW,296,17.0,24.0,10,-99.99,,,-99.99,,2013-03-18 02:32:00,
2013-03-17 20:42:00,70.0,11.0,29.85,WNW,299,18.0,24.0,10,-99.99,,,-99.99,,2013-03-18 02:42:00,
2013-03-17 20:52:00,70.0,11.0,29.85,WNW,293,18.0,29.0,10,-99.99,,,-99.99,,2013-03-18 02:52:00,
2013-03-17 21:02:00,70.0,11.0,29.86,WNW,300,20.0,27.0,10,-99.99,,,-99.99,,2013-03-18 03:02:00,
2013-03-17 21:11:00,70.0,11.0,29.86,WNW,300,23.0,31.0,10,-99.99,,,-99.99,,2013-03-18 03:11:00,
2013-03-17 21:22:00,70.0,11.0,29.87,WNW,298,20.0,24.0,10,-99.99,,,-99.99,,2013-03-18 03:22:00,
2013-03-17 21:33:00,69.0,11.0,29.87,WNW,296,16.0,22.0,10,-99.99,,,-99.99,,2013-03-18 03:33:00,
2013-03-17 21:42:00,69.0,11.0,29.87,WNW,286,16.0,21.0,10,-99.99,,,-99.99,,2013-03-18 03:42:00,
2013-03-17 21:53:00,69.0,11.0,29.87,WNW,293,21.0,29.0,10,-99.99,,,-99.99,,2013-03-18 03:53:00,
2013-03-17 22:03:00,69.0,10.0,29.87,WNW,298,18.0,24.0,10,-99.99,,,-99.99,,2013-03-18 04:03:00,
2013-03-17 22:13:00,68.0,12.0,29.88,WNW,293,17.0,25.0,11,-99.99,,,-99.99,,2013-03-18 04:13:00,
2013-03-17 22:23:00,68.0,11.0,29.88,WNW,288,16.0,23.0,11,-99.99,,,-99.99,,2013-03-18 04:23:00,
2013-03-17 22:33:00,67.0,11.0,29.89,WNW,291,15.0,20.0,11,-99.99,,,-99.99,,2013-03-18 04:33:00,
2013-03-17 22:42:00,66.0,10.0,29.89,WNW,288,14.0,18.0,11,-99.99,,,-99.99,,2013-03-18 04:42:00,
2013-03-17 22:52:00,65.0,12.0,29.90,WNW,289,14.0,21.0,12,-99.99,,,-99.99,,2013-03-18 04:52:00,
2013-03-17 23:02:00,65.0,11.0,29.90,WNW,291,15.0,21.0,12,-99.99,,,-99.99,,2013-03-18 05:02:00,
2013-03-17 23:12:00,65.0,11.0,29.91,WNW,294,17.0,24.0,12,-99.99,,,-99.99,,2013-03-18 05:12:00,
2013-03-17 23:22:00,65.0,11.0,29.91,WNW,298,14.0,17.0,12,-99.99,,,-99.99,,2013-03-18 05:22:00,
2013-03-17 23:32:00,64.0,12.0,29.92,WNW,295,13.0,15.0,13,-99.99,,,-99.99,,2013-03-18 05:32:00,
2013-03-17 23:43:00,63.0,12.0,29.92,WNW,295,12.0,15.0,13,-99.99,,,-99.99,,2013-03-18 05:43:00,
2013-03-17 23:52:00,62.0,12.0,29.92,WNW,292,12.0,13.0,14,-99.99,,,-99.99,,2013-03-18 05:52:00,